Flag for Jordan Weather past 2 weeks in Zarqa, Jordan

Now
54 °F

Scattered clouds.


Feels Like: 49 °F
Forecast: 46 / 60 °F
Wind: 14 mph from Northwest

Location: Amman Airport

Current Time: Mar 2, 2015 at 10:24:41 AM

Latest Report: Mar 2, 2015 at 10:00 AM


Visibility: 3 mi

Pressure: 30.12 "Hg

Humidity: 58%

Dew point: 39 °F

Location of ZarqaLocation

Historic Weather in Zarqa — Graph

°F

Zarqa temperature yesterday

Maximum temperature yesterday: 59 °F (at 1:00 PM)
Minimum temperature yesterday: 43 °F (at 3:00 AM)
Average temperature yesterday: 50 °F

Past Weeks' High & Low Weather Summary

 TemperatureHumidityPressure
High72 °F (Feb 27, 3:00 PM)100% (Feb 16, 8:00 AM)30.27 "Hg (Feb 16, 8:00 AM)
Low30 °F (Feb 20, 4:00 AM)22% (Feb 27, 3:00 PM)29.65 "Hg (Feb 20, 5:00 AM)
Average47 °F71%30.02 "Hg
* Reported Feb 15 9:00 AM — Mar 2 9:00 AM, Zarqa, Weather by CustomWeather, © 2015

Note: Actual official high and low records may vary slightly from our data, if they occured in-between our weather recording intervals... More about our weather records

Advertising

Zarqa weather history for previous 24 hours

 ConditionsComfort  
Time TempWeatherWind HumidityBarometerVisibility
9:00 AM
Mon, Mar 2
52 °FScattered clouds.10 mph62%30.12 "Hg3 mi
8:00 AM48 °FScattered clouds.5 mph76%30.07 "Hg4 mi
7:00 AM48 °FScattered clouds.5 mph71%30.07 "Hg4 mi
6:00 AM46 °FPassing clouds.9 mph82%30.07 "Hg4 mi
5:00 AM46 °FPassing clouds.12 mph82%30.07 "Hg4 mi
4:00 AM46 °FPassing clouds.10 mph82%30.07 "Hg4 mi
3:00 AM46 °FPassing clouds.6 mph82%30.04 "Hg4 mi
2:00 AM46 °FPassing clouds.6 mph82%30.07 "Hg3 mi
1:00 AM46 °FHaze.6 mph82%30.07 "Hg3 mi
12:00 AM46 °FHaze.9 mph82%30.07 "Hg3 mi
11:00 PM
Sun, Mar 1
46 °FHaze.7 mph87%30.07 "Hg3 mi
10:00 PM46 °FHaze.6 mph82%30.07 "Hg3 mi
9:00 PM48 °FHaze.6 mph82%30.07 "Hg2 mi
8:00 PM50 °FHaze.8 mph82%30.04 "Hg2 mi
7:00 PM52 °FHaze.6 mph77%30.04 "Hg2 mi
6:00 PM54 °FHaze.9 mph63%30.04 "Hg2 mi
5:00 PM55 °FHaze.12 mph51%30.04 "Hg3 mi
4:00 PM59 °FClear.12 mph42%30.04 "Hg4 mi
3:00 PM59 °FHaze.8 mph39%30.12 "Hg3 mi
2:00 PM59 °FHaze.5 mph39%30.07 "Hg3 mi
1:00 PM59 °FHaze.8 mph42%30.09 "Hg3 mi
12:00 PM57 °FHaze.No wind44%30.09 "Hg3 mi
11:00 AM55 °FHaze.9 mph44%30.12 "Hg3 mi
10:00 AM54 °FHaze.9 mph51%30.12 "Hg3 mi
Weather by CustomWeather, © 2015

See weather overviewHow to use our weather pages